Location: ????????
(55.6333°N, 37.7000°E)
Time: 02:01:02
(UTC+00:00)

BREEZE-M R/B - Pass Details

Date: 19 May 2025
Orbit: 537 x 26537 km, 49.0° (Epoch: 12 June)

Event Time Altitude Azimuth Distance (km) Brightness Sun altitude
Rises 19:55:54 0° 286° (WNW) 9,471 9.1 -12.0°
Reaches altitude 10° 20:05:14 10° 281° (W) 5,746 7.9 -12.5°
Maximum altitude 20:15:19 32° 222° (SW) 1,731 4.6 -12.9°
Enters shadow 20:17:58 19° 170° (S) 1,777 4.2 -13.0°
